QPF
0.00 0.00 0.00 0.00 0.00 0.00 0.00 0.00 0.00 0.00 0.00 0.00 0.00 0.00 0.00 0.00 0.00 0.00 0.00 0.00 0.00 0.00 0.00 0.00 0.00 0.00 0.00 0.00 0.00 0.00 0.00 0.00 0.00 0.00 0.00 0.00 0.01 0.02 0.04 0.05 0.03 0.02 0.01 0.01
0.00 0.00 0.00 0.00 0.00 0.00 0.00 0.00 0.00 0.00 0.00 0.00 0.00 0.00 0.00 0.00 0.00 0.00 0.00 0.00 0.00 0.00 0.00 0.00 0.00 0.00 0.00 0.00 0.00 0.00 0.00 0.00 0.00 0.00 0.00 0.00 0.00 0.00 0.01 0.01 0.00 0.01 0.01 0.01
0.00 0.00 0.00 0.00 0.00 0.00 0.00 0.00 0.00 0.00 0.00 0.00 0.00 0.00 0.00 0.00 0.00 0.00 0.00 0.00 0.00 0.00 0.00 0.00 0.00 0.00 0.00 0.00 0.00 0.00 0.00 0.00 0.00 0.00 0.00 0.00 0.00 0.00 0.00 0.00 0.00 0.00 0.00 0.00
0.00 0.00 0.00 0.00 0.00 0.00 0.00 0.00 0.00 0.00 0.00 0.00 0.00 0.00 0.00 0.00 0.00 0.00 0.00 0.00 0.00 0.00 0.00 0.00 0.00 0.00 0.00 0.00 0.00 0.00 0.00 0.00 0.00 0.00 0.00 0.00 0.00 0.00 0.00 0.00 0.00 0.00 0.00 0.00
0.00 0.00 0.00 0.00 0.00 0.00 0.00 0.00 0.00 0.00 0.00 0.00 0.00 0.00 0.00 0.00 0.00 0.00 0.00 0.00 0.00 0.00 0.00 0.00 0.00 0.00 0.00 0.00 0.00 0.00 0.00 0.00 0.00 0.00 0.00 0.00 0.00 0.00 0.00 0.00 0.00 0.00 0.00 0.00
0.00 0.00 0.00 0.00 0.00 0.00 0.00 0.00 0.00 0.00 0.00 0.00 0.00 0.00 0.00 0.00 0.00 0.00 0.00 0.00 0.00 0.00 0.00 0.00 0.00 0.00 0.00 0.00 0.00 0.00 0.00 0.00 0.00 0.00 0.00 0.00 0.00 0.00 0.00 0.00 0.00 0.00 0.00 0.00
0.00 0.00 0.00 0.00 0.00 0.00 0.00 0.00 0.00 0.00 0.00 0.00 0.00 0.00 0.00 0.00 0.00 0.00 0.00 0.00 0.00 0.00 0.00 0.00 0.00 0.00 0.00 0.00 0.00 0.00 0.00 0.00 0.00 0.00 0.00 0.00 0.00 0.00 0.00 0.00 0.00 0.00 0.00 0.00
0.00 0.00 0.00 0.00 0.00 0.00 0.00 0.00 0.00 0.00 0.00 0.00 0.00 0.00 0.00 0.00 0.00 0.00 0.00 0.00 0.00 0.00 0.00 0.00 0.00 0.00 0.00 0.00 0.00 0.00 0.00 0.00 0.00 0.00 0.00 0.00 0.00 0.00 0.00 0.00 0.00 0.00 0.00 0.00
0.00 0.00 0.00 0.00 0.00 0.00 0.00 0.00 0.00 0.00 0.00 0.00 0.00 0.00 0.00 0.00 0.00 0.00 0.00 0.00 0.00 0.00 0.00 0.00 0.00 0.00 0.00 0.00 0.00 0.00 0.00 0.00 0.00 0.00 0.00 0.00 0.00 0.00 0.00 0.00 0.00 0.00 0.00 0.00
0.00 0.00 0.00 0.00 0.00 0.00 0.00 0.00 0.00 0.00 0.00 0.00 0.00 0.00 0.00 0.00 0.00 0.00 0.00 0.00 0.00 0.00 0.00 0.00 0.00 0.00 0.00 0.00 0.00 0.00 0.00 0.00 0.00 0.00 0.00 0.00 0.00 0.00 0.00 0.00 0.00 0.00 0.00 0.00
0.00 0.00 0.00 0.00 0.00 0.00 0.00 0.00 0.00 0.00 0.00 0.00 0.00 0.00 0.00 0.00 0.00 0.00 0.00 0.00 0.00 0.00 0.00 0.00 0.00 0.00 0.00 0.00 0.00 0.00 0.00 0.00 0.00 0.00 0.00 0.00 0.00 0.00 0.00 0.00 0.00 0.00 0.00 0.00
0.00 0.00 0.00 0.00 0.00 0.00 0.00 0.00 0.00 0.00 0.00 0.00 0.00 0.00 0.00 0.00 0.00 0.00 0.00 0.00 0.00 0.00 0.00 0.00 0.00 0.00 0.00 0.00 0.00 0.00 0.00 0.00 0.00 0.00 0.00 0.00 0.00 0.00 0.00 0.00 0.00 0.00 0.00 0.00
0.00 0.00 0.00 0.00 0.00 0.00 0.00 0.00 0.00 0.00 0.00 0.00 0.00 0.00 0.00 0.00 0.00 0.00 0.00 0.00 0.00 0.00 0.00 0.00 0.00 0.00 0.00 0.00 0.00 0.00 0.00 0.00 0.00 0.00 0.00 0.00 0.00 0.00 0.00 0.00 0.00 0.00 0.00 0.00
0.00 0.00 0.00 0.00 0.00 0.00 0.00 0.00 0.00 0.00 0.00 0.00 0.00 0.00 0.00 0.00 0.00 0.00 0.00 0.00 0.00 0.00 0.00 0.00 0.00 0.00 0.00 0.00 0.00 0.00 0.00 0.00 0.00 0.00 0.00 0.00 0.00 0.00 0.00 0.01 0.01 0.00 0.00 0.00
0.00 0.00 0.00 0.00 0.00 0.00 0.00 0.00 0.00 0.00 0.00 0.00 0.00 0.00 0.00 0.00 0.00 0.00 0.00 0.00 0.00 0.00 0.00 0.00 0.00 0.00 0.00 0.00 0.00 0.00 0.00 0.00 0.00 0.00 0.00 0.00 0.00 0.02 0.13 0.18 0.08 0.00 0.00 0.00
0.00 0.00 0.00 0.00 0.00 0.00 0.00 0.00 0.00 0.00 0.00 0.00 0.00 0.00 0.00 0.00 0.00 0.00 0.00 0.00 0.00 0.00 0.00 0.00 0.00 0.00 0.00 0.00 0.00 0.00 0.00 0.00 0.00 0.00 0.00 0.00 0.00 0.02 0.22 0.22 0.16 0.09 0.07 0.02
0.01 0.00 0.00 0.00 0.00 0.00 0.00 0.00 0.00 0.00 0.00 0.00 0.00 0.00 0.00 0.00 0.00 0.00 0.00 0.00 0.00 0.00 0.00 0.00 0.00 0.00 0.00 0.00 0.00 0.00 0.00 0.00 0.00 0.00 0.00 0.00 0.00 0.04 0.14 0.16 0.25 0.17 0.07 0.02
0.01 0.01 0.00 0.00 0.00 0.00 0.00 0.00 0.00 0.00 0.00 0.00 0.00 0.00 0.00 0.00 0.00 0.00 0.00 0.00 0.00 0.00 0.00 0.00 0.00 0.00 0.00 0.00 0.00 0.00 0.00 0.00 0.00 0.00 0.00 0.00 0.00 0.03 0.07 0.12 0.19 0.12 0.05 0.01
0.00 0.01 0.00 0.00 0.00 0.00 0.00 0.00 0.00 0.00 0.00 0.00 0.00 0.00 0.00 0.00 0.00 0.00 0.00 0.00 0.00 0.00 0.00 0.00 0.00 0.00 0.00 0.00 0.00 0.00 0.00 0.00 0.00 0.00 0.00 0.00 0.00 0.00 0.02 0.07 0.10 0.10 0.05 0.01
0.00 0.00 0.01 0.01 0.01 0.00 0.00 0.00 0.00 0.00 0.00 0.00 0.00 0.00 0.00 0.00 0.00 0.00 0.00 0.00 0.00 0.00 0.00 0.00 0.00 0.00 0.00 0.00 0.00 0.00 0.00 0.00 0.00 0.00 0.00 0.00 0.00 0.00 0.03 0.07 0.10 0.08 0.02 0.00
0.00 0.00 0.00 0.01 0.01 0.00 0.00 0.00 0.00 0.00 0.00 0.00 0.00 0.00 0.00 0.00 0.00 0.00 0.00 0.00 0.00 0.00 0.00 0.00 0.00 0.00 0.00 0.00 0.00 0.00 0.00 0.00 0.00 0.00 0.00 0.00 0.00 0.00 0.03 0.08 0.08 0.05 0.01 0.02
0.00 0.00 0.00 0.01 0.01 0.00 0.00 0.00 0.00 0.00 0.00 0.00 0.00 0.00 0.00 0.00 0.00 0.00 0.00 0.00 0.00 0.00 0.00 0.00 0.00 0.00 0.00 0.00 0.00 0.00 0.00 0.00 0.00 0.00 0.00 0.00 0.00 0.00 0.00 0.01 0.02 0.04 0.05 0.03
0.00 0.00 0.00 0.01 0.01 0.00 0.00 0.00 0.00 0.00 0.00 0.00 0.00 0.00 0.00 0.00 0.00 0.00 0.00 0.00 0.00 0.00 0.00 0.00 0.00 0.00 0.00 0.00 0.00 0.00 0.00 0.00 0.00 0.00 0.00 0.00 0.00 0.00 0.00 0.00 0.00 0.02 0.05 0.05
0.00 0.00 0.00 0.00 0.02 0.03 0.02 0.01 0.00 0.00 0.00 0.00 0.00 0.00 0.00 0.00 0.00 0.00 0.00 0.00 0.00 0.00 0.00 0.00 0.00 0.00 0.00 0.00 0.00 0.00 0.00 0.00 0.00 0.00 0.00 0.00 0.00 0.00 0.00 0.00 0.00 0.00 0.00 0.00
0.03 0.02 0.00 0.00 0.00 0.02 0.04 0.05 0.04 0.03 0.02 0.01 0.00 0.00 0.00 0.00 0.00 0.00 0.00 0.00 0.00 0.00 0.00 0.00 0.00 0.00 0.00 0.00 0.00 0.00 0.00 0.00 0.00 0.00 0.00 0.00 0.00 0.00 0.00 0.00 0.00 0.00 0.00 0.00
0.03 0.02 0.00 0.00 0.00 0.00 0.00 0.02 0.03 0.04 0.05 0.04 0.02 0.02 0.01 0.01 0.00 0.00 0.00 0.00 0.00 0.00 0.00 0.00 0.00 0.00 0.00 0.00 0.00 0.00 0.00 0.00 0.00 0.00 0.00 0.00 0.00 0.00 0.00 0.00 0.00 0.00 0.00 0.00
MSLP
1004.04 1003.52 1002.59 1002.67 1002.58 1002.35 1002.44 1002.97 1003.27 1004.24 1004.95 1005.71 1006.24 1006.78 1007.58 1008.32 1008.91 1009.08 1009.59 1010.24 1010.51 1010.68 1011.07 1011.64 1012.20 1012.80 1013.34 1013.79 1014.26 1014.66 1015.03 1015.32 1015.81 1016.11 1016.37 1016.51 1016.52 1016.68 1016.84 1016.92 1016.91 1017.19 1017.32 1017.47
1004.05 1002.93 1002.84 1002.75 1002.59 1002.53 1002.50 1002.61 1003.09 1004.15 1004.84 1005.30 1006.13 1006.34 1007.12 1007.57 1007.97 1008.38 1008.76 1009.33 1009.69 1010.04 1010.60 1011.12 1011.59 1012.11 1012.63 1013.13 1013.55 1014.08 1014.48 1014.87 1015.36 1015.64 1015.97 1016.15 1016.32 1016.37 1016.31 1016.52 1016.76 1016.98 1017.17 1017.33
1002.89 1002.59 1002.88 1002.72 1002.48 1002.32 1002.31 1002.15 1002.82 1003.19 1004.65 1005.25 1005.65 1005.69 1006.17 1006.72 1007.43 1008.01 1008.20 1008.40 1008.78 1009.06 1009.53 1010.18 1010.83 1011.28 1011.82 1012.42 1012.95 1013.42 1013.80 1014.23 1014.84 1015.35 1015.82 1016.15 1016.32 1016.40 1016.39 1016.51 1016.67 1016.71 1017.01 1017.25
1002.88 1002.54 1002.30 1002.28 1001.81 1001.72 1001.46 1001.89 1002.40 1003.29 1003.86 1004.17 1005.15 1004.21 1004.74 1005.35 1006.11 1006.75 1007.08 1007.41 1007.57 1008.08 1008.72 1009.15 1009.81 1010.38 1010.90 1011.51 1012.14 1012.69 1013.25 1013.72 1014.28 1014.89 1015.22 1015.50 1015.61 1015.71 1015.90 1016.21 1016.40 1016.67 1016.94 1017.16
1002.12 1002.08 1002.05 1001.49 1001.22 1001.64 1001.33 1001.76 1002.24 1002.73 1003.23 1004.22 1004.84 1004.84 1003.24 1004.57 1004.73 1004.49 1005.09 1005.65 1006.21 1006.63 1007.29 1007.80 1008.51 1009.30 1009.98 1010.66 1011.33 1011.98 1012.67 1013.20 1013.67 1014.23 1014.61 1015.05 1015.24 1015.32 1015.78 1016.16 1016.49 1016.74 1017.02 1017.26
1001.83 1002.00 1001.47 1001.04 1001.17 1001.30 1001.82 1002.18 1003.07 1003.48 1003.53 1003.73 1003.44 1003.78 1002.29 1002.97 1002.36 1002.12 1002.95 1004.20 1004.73 1005.35 1005.98 1006.70 1007.59 1008.52 1009.18 1009.97 1010.56 1011.11 1011.80 1012.31 1013.02 1013.63 1014.08 1014.41 1014.59 1014.98 1015.50 1015.84 1016.15 1016.48 1016.93 1017.21
1001.51 1001.34 1001.11 1000.85 1000.77 1001.08 1001.27 1001.48 1002.47 1003.03 1003.28 1002.55 1002.83 1003.08 1001.39 1000.76 1000.71 1000.63 1001.02 1002.08 1003.14 1004.15 1004.99 1005.58 1006.46 1007.29 1008.05 1008.76 1009.53 1010.20 1010.91 1011.50 1012.29 1012.86 1013.24 1013.66 1014.05 1014.46 1014.89 1015.21 1015.52 1016.01 1016.45 1016.77
1000.42 1000.60 1000.47 1000.12 999.67 999.90 1000.45 1000.54 1000.51 1001.18 1001.82 1002.27 1002.94 1001.67 1000.08 999.65 999.40 1000.17 1000.51 1001.08 1002.36 1003.09 1003.85 1004.54 1005.20 1006.05 1006.94 1007.77 1008.58 1009.30 1009.92 1010.77 1011.39 1011.92 1012.39 1013.03 1013.54 1013.85 1014.22 1014.64 1014.83 1015.29 1015.69 1016.06
999.84 999.79 1000.00 999.79 999.68 999.58 1000.11 1000.05 1000.23 1000.76 1002.08 1001.44 1000.95 1000.91 1000.07 999.14 998.99 999.13 999.46 1000.32 1000.83 1001.53 1002.37 1003.02 1004.21 1005.07 1005.71 1006.61 1007.25 1007.89 1008.81 1009.69 1010.41 1010.99 1011.80 1012.40 1013.04 1013.43 1013.76 1014.36 1014.74 1014.96 1015.44 1015.75
999.22 999.35 999.08 999.13 999.50 999.49 999.17 999.61 1000.56 1000.45 1000.04 1000.28 1000.22 999.89 998.67 998.21 997.88 997.92 998.61 998.98 999.27 1000.04 1001.22 1002.02 1002.73 1003.74 1004.58 1005.22 1005.98 1007.02 1007.81 1008.44 1009.22 1010.35 1010.89 1011.41 1012.25 1013.01 1013.33 1014.08 1014.64 1014.67 1015.22 1015.62
998.52 998.76 998.97 999.07 998.33 998.25 999.28 999.20 999.39 999.26 999.36 998.77 998.93 998.02 998.16 997.49 997.13 997.01 997.28 997.74 998.12 999.11 999.92 1000.61 1001.52 1002.67 1003.47 1004.14 1005.20 1005.97 1006.86 1007.68 1008.51 1009.06 1009.71 1010.51 1011.43 1012.36 1012.97 1013.30 1013.96 1015.31 1014.31 1015.19
998.25 998.44 998.21 997.73 997.95 998.13 997.81 997.91 998.19 997.86 998.88 998.86 998.08 997.07 997.06 996.93 996.61 996.64 996.61 997.07 997.79 998.49 999.10 999.93 1000.92 1001.99 1002.87 1003.53 1004.33 1004.92 1005.59 1006.37 1006.89 1007.62 1008.86 1009.62 1010.79 1011.41 1012.09 1012.77 1013.02 1014.06 1015.76 1014.94
998.12 998.31 997.96 997.69 997.83 997.87 997.64 997.44 997.36 997.63 997.54 997.02 997.20 996.56 996.74 996.64 996.89 996.86 997.02 996.73 997.56 998.25 998.98 999.70 1000.46 1001.12 1001.98 1002.71 1003.29 1003.90 1004.54 1005.00 1005.76 1007.16 1007.98 1009.04 1009.79 1010.52 1010.89 1012.06 1014.30 1015.82 1015.71 1016.67
997.67 997.50 997.12 996.32 996.11 996.60 996.71 996.93 997.00 996.96 996.40 996.54 996.07 996.30 996.18 996.11 996.42 996.29 996.51 996.58 997.11 997.94 998.59 999.28 1000.02 1000.47 1001.16 1001.81 1002.55 1003.15 1003.70 1004.64 1005.63 1006.35 1007.15 1008.14 1008.67 1009.32 1010.86 1012.34 1013.10 1013.45 1016.05 1015.13
997.57 997.05 996.83 995.87 995.21 995.19 995.24 995.63 995.92 995.99 995.66 995.34 995.47 995.64 995.27 995.33 995.57 995.61 995.43 996.17 997.08 997.70 998.28 998.73 999.13 999.78 1000.50 1001.36 1002.01 1002.65 1003.51 1004.23 1004.83 1005.60 1006.51 1007.35 1008.56 1009.56 1010.71 1011.59 1012.34 1012.89 1013.37 1012.57
997.58 997.03 996.91 995.87 995.19 994.83 994.20 994.24 994.58 994.83 994.96 995.11 994.95 994.57 994.53 994.52 995.22 995.66 995.26 996.04 996.59 997.10 997.53 997.84 998.36 999.17 999.79 1000.49 1001.36 1002.33 1003.01 1003.59 1004.48 1005.17 1006.06 1007.11 1008.06 1008.81 1009.56 1010.62 1011.27 1011.97 1012.85 1014.39
997.67 997.47 997.17 996.06 995.25 994.97 994.31 993.68 993.82 993.97 994.07 994.18 993.68 993.93 993.86 994.23 994.56 994.46 994.68 995.30 995.53 995.94 996.24 997.05 997.51 998.14 999.12 999.94 1000.81 1001.65 1002.61 1003.44 1004.13 1004.97 1005.84 1006.67 1007.55 1008.38 1009.00 1009.78 1010.76 1011.71 1012.39 1013.14
997.85 997.79 997.67 996.93 996.37 995.07 993.10 993.02 993.20 993.15 993.17 993.59 993.22 993.36 993.26 993.27 993.37 993.81 994.55 994.89 994.91 995.41 995.75 996.58 997.38 998.20 999.07 999.87 1000.64 1001.60 1002.39 1003.08 1003.80 1004.67 1005.53 1006.39 1007.12 1007.62 1008.43 1009.15 1010.00 1011.16 1011.73 1011.91
997.52 998.01 998.09 997.98 996.57 995.07 993.91 993.75 993.43 993.11 992.75 993.08 993.14 993.22 993.25 993.72 994.25 994.71 995.04 994.89 994.97 995.56 996.20 996.62 997.33 998.12 998.85 999.63 1000.46 1001.24 1001.92 1002.54 1003.45 1004.41 1005.30 1006.28 1007.03 1007.63 1008.08 1008.40 1009.26 1010.41 1011.24 1011.76
997.86 997.94 998.53 999.35 998.28 996.08 995.87 995.88 995.57 994.82 993.22 993.02 993.06 993.22 993.39 994.08 994.78 994.90 995.35 995.19 995.43 995.53 996.22 996.67 997.53 998.17 998.88 999.20 999.88 1000.73 1001.40 1002.33 1003.15 1003.67 1004.26 1005.53 1006.22 1006.81 1007.54 1008.65 1009.24 1009.52 1010.22 1010.65
997.41 998.10 998.78 999.74 999.24 997.24 997.78 997.36 996.60 995.78 994.18 993.28 993.49 993.52 993.97 994.69 995.79 996.12 996.16 996.37 996.22 996.10 996.61 997.21 997.85 998.48 999.14 999.64 1000.03 1000.73 1001.56 1002.05 1002.66 1003.45 1004.45 1004.90 1005.57 1006.66 1006.96 1007.84 1008.54 1008.99 1009.55 1009.98
996.59 998.02 999.51 1000.07 1000.27 998.90 998.64 997.60 997.66 996.69 995.28 994.42 994.31 993.63 994.68 996.01 996.39 996.40 996.75 997.16 997.38 997.49 997.63 998.03 998.35 999.27 999.83 1000.05 1000.40 1001.30 1002.01 1002.59 1003.04 1002.99 1003.88 1004.70 1005.20 1005.89 1006.33 1007.21 1008.10 1008.67 1009.13 1009.37
996.68 996.89 998.71 1000.13 1001.13 1000.31 999.66 999.36 999.02 998.02 996.87 996.33 995.85 995.14 995.13 996.32 997.19 997.56 997.70 998.26 998.66 998.93 998.94 999.14 999.37 1000.01 1000.26 1000.54 1001.06 1001.67 1002.15 1002.73 1002.68 1003.44 1004.40 1004.70 1005.38 1005.79 1005.97 1006.61 1007.24 1007.97 1008.91 1009.15
997.41 997.43 998.15 999.98 1000.65 1000.44 1000.11 999.84 999.77 998.84 998.34 998.11 997.83 997.34 996.47 997.01 997.83 998.70 998.56 998.83 999.28 999.97 1000.01 1000.12 1000.38 1001.12 1001.30 1001.50 1001.66 1001.88 1002.11 1003.17 1002.69 1003.54 1004.50 1004.87 1005.60 1005.66 1006.14 1006.49 1007.43 1007.85 1008.45 1008.80
999.28 998.58 998.90 999.69 999.73 1001.27 1001.33 1000.73 1000.71 1000.15 999.59 999.17 999.00 998.58 998.42 998.67 997.99 999.48 999.64 999.67 999.96 1000.18 1000.14 1000.10 1000.62 1000.88 1001.26 1001.77 1002.12 1002.53 1002.61 1003.75 1003.60 1004.24 1004.66 1005.05 1005.82 1006.52 1007.14 1007.97 1008.43 1008.77 1008.79 1009.15
1001.27 1000.53 999.80 1000.06 999.77 1000.77 1000.86 1001.14 1001.01 1000.57 1000.56 1000.20 999.64 999.73 1000.19 999.85 999.46 1000.05 1000.02 1000.34 1000.32 1000.74 1000.95 1001.16 1001.44 1001.73 1002.06 1002.16 1002.55 1002.97 1003.37 1004.16 1004.52 1005.18 1005.64 1005.55 1005.93 1007.07 1007.58 1007.98 1009.22 1009.99 1010.07 1010.19
Thickness
5798 5792 5792 5806 5819 5828 5825 5814 5813 5813 5819 5808 5802 5802 5801 5805 5803 5804 5804 5801 5801 5803 5808 5807 5805 5804 5801 5798 5795 5794 5791 5791 5787 5783 5780 5779 5779 5778 5777 5774 5773 5771 5770 5769
5780 5783 5806 5816 5817 5815 5816 5811 5810 5810 5815 5811 5798 5798 5803 5807 5808 5810 5810 5806 5805 5806 5806 5806 5806 5805 5804 5801 5799 5796 5794 5793 5789 5787 5784 5783 5781 5781 5780 5776 5774 5772 5769 5768
5779 5796 5802 5799 5802 5801 5808 5810 5806 5811 5806 5805 5799 5793 5799 5809 5811 5811 5815 5818 5816 5813 5811 5809 5807 5808 5808 5804 5801 5799 5798 5796 5792 5789 5785 5782 5780 5779 5778 5777 5775 5772 5768 5765
5778 5800 5793 5793 5796 5809 5802 5823 5820 5806 5799 5783 5803 5781 5801 5812 5807 5810 5815 5818 5821 5820 5819 5817 5813 5811 5810 5809 5807 5804 5800 5798 5794 5790 5787 5783 5781 5777 5779 5776 5774 5769 5765 5761
5773 5783 5781 5784 5798 5807 5809 5822 5816 5813 5804 5788 5780 5774 5816 5805 5803 5819 5825 5828 5829 5831 5828 5825 5821 5818 5816 5815 5810 5806 5802 5799 5797 5794 5789 5783 5780 5780 5776 5771 5766 5763 5759 5756
5777 5793 5794 5797 5808 5810 5810 5802 5792 5792 5791 5757 5792 5782 5807 5803 5822 5836 5840 5836 5837 5837 5836 5833 5829 5824 5817 5815 5813 5810 5804 5802 5799 5794 5789 5785 5781 5776 5770 5766 5763 5760 5755 5753
5761 5771 5791 5800 5790 5800 5799 5792 5757 5749 5744 5754 5796 5775 5809 5837 5845 5852 5851 5846 5846 5843 5838 5836 5830 5824 5821 5817 5814 5812 5808 5803 5799 5794 5790 5786 5782 5778 5770 5767 5765 5759 5754 5751
5739 5737 5770 5792 5794 5785 5786 5795 5770 5737 5745 5762 5769 5766 5811 5849 5861 5855 5856 5855 5847 5845 5845 5840 5838 5834 5827 5822 5818 5815 5811 5804 5800 5796 5793 5788 5782 5779 5776 5771 5769 5764 5758 5753
5734 5741 5776 5786 5797 5800 5779 5770 5811 5780 5757 5769 5783 5789 5817 5843 5848 5854 5856 5854 5853 5854 5853 5851 5843 5839 5835 5828 5824 5821 5815 5809 5805 5800 5793 5788 5783 5778 5774 5769 5765 5762 5756 5752
5749 5734 5773 5784 5791 5793 5791 5806 5767 5769 5749 5740 5765 5772 5799 5828 5844 5858 5854 5857 5865 5865 5858 5856 5854 5847 5842 5837 5833 5826 5822 5816 5811 5801 5797 5793 5785 5777 5775 5766 5759 5758 5751 5747
5757 5749 5752 5766 5766 5776 5771 5769 5773 5790 5779 5767 5759 5779 5823 5836 5852 5859 5865 5867 5870 5868 5865 5864 5860 5854 5848 5844 5836 5831 5826 5819 5812 5808 5803 5796 5787 5777 5771 5769 5758 5745 5754 5744
5754 5746 5734 5754 5777 5785 5791 5784 5788 5776 5757 5768 5779 5787 5835 5843 5856 5863 5868 5871 5871 5871 5870 5868 5862 5854 5848 5844 5839 5835 5833 5827 5823 5817 5805 5798 5787 5780 5774 5764 5763 5750 5731 5740
5744 5728 5718 5731 5751 5762 5758 5778 5786 5789 5792 5770 5765 5783 5832 5839 5839 5852 5855 5868 5864 5865 5865 5865 5860 5856 5851 5847 5844 5841 5838 5835 5829 5816 5807 5796 5789 5780 5775 5766 5739 5721 5722 5710
5749 5737 5733 5731 5752 5768 5750 5759 5767 5774 5766 5770 5771 5793 5816 5835 5837 5850 5855 5862 5865 5862 5863 5862 5858 5857 5854 5851 5846 5843 5840 5833 5825 5819 5809 5798 5792 5784 5768 5753 5743 5729 5706 5717
5739 5726 5736 5754 5771 5771 5767 5764 5767 5759 5777 5768 5789 5786 5819 5836 5845 5854 5868 5863 5857 5857 5859 5859 5861 5858 5854 5849 5846 5843 5837 5832 5827 5819 5808 5798 5787 5775 5762 5752 5739 5727 5720 5725
5730 5725 5727 5737 5759 5762 5762 5772 5774 5773 5778 5776 5792 5792 5831 5846 5846 5845 5858 5855 5853 5855 5859 5863 5863 5858 5855 5851 5845 5838 5834 5830 5823 5815 5805 5795 5784 5775 5764 5752 5744 5733 5719 5701
5719 5719 5716 5720 5749 5745 5729 5759 5766 5774 5783 5783 5777 5804 5835 5829 5836 5849 5856 5856 5859 5862 5865 5863 5863 5861 5855 5848 5842 5834 5828 5825 5817 5809 5801 5792 5782 5771 5763 5752 5739 5728 5718 5709
5704 5705 5709 5714 5719 5694 5762 5787 5783 5780 5789 5792 5803 5813 5829 5839 5853 5856 5856 5855 5862 5865 5866 5862 5859 5855 5850 5843 5837 5829 5824 5817 5810 5801 5793 5785 5777 5771 5760 5752 5739 5724 5717 5711
5712 5701 5700 5696 5713 5739 5754 5766 5768 5765 5774 5795 5798 5813 5823 5830 5834 5835 5844 5853 5858 5857 5856 5856 5854 5848 5843 5836 5830 5825 5818 5812 5803 5792 5784 5776 5769 5760 5754 5748 5737 5724 5714 5704
5695 5697 5698 5685 5683 5709 5731 5744 5754 5760 5757 5793 5801 5808 5817 5819 5809 5829 5835 5845 5848 5853 5851 5849 5845 5841 5835 5833 5830 5820 5813 5805 5795 5792 5786 5775 5769 5761 5749 5737 5728 5724 5714 5704
5689 5687 5686 5678 5681 5720 5717 5730 5747 5738 5769 5787 5797 5807 5807 5807 5808 5814 5825 5828 5837 5842 5840 5838 5835 5830 5827 5824 5819 5810 5802 5796 5793 5785 5776 5773 5763 5751 5745 5733 5724 5716 5707 5700
5690 5681 5669 5670 5673 5697 5715 5730 5728 5745 5763 5778 5790 5802 5797 5795 5802 5809 5813 5814 5818 5820 5822 5821 5818 5811 5810 5810 5806 5797 5790 5786 5780 5775 5770 5762 5752 5745 5738 5726 5716 5708 5698 5695
5684 5696 5671 5673 5665 5690 5705 5709 5722 5738 5752 5763 5775 5790 5797 5790 5788 5792 5796 5796 5797 5798 5800 5804 5801 5798 5796 5795 5791 5784 5777 5771 5772 5762 5753 5747 5737 5733 5730 5723 5715 5704 5692 5685
5685 5696 5685 5674 5670 5684 5696 5708 5713 5728 5735 5745 5754 5766 5780 5777 5776 5774 5782 5784 5784 5780 5782 5784 5783 5776 5774 5774 5774 5770 5767 5757 5763 5753 5738 5734 5725 5723 5719 5716 5708 5699 5689 5683
5664 5680 5680 5673 5677 5671 5680 5693 5699 5709 5722 5730 5738 5748 5755 5756 5762 5757 5761 5766 5768 5768 5772 5774 5769 5767 5764 5761 5759 5755 5754 5743 5742 5733 5727 5722 5713 5705 5696 5688 5685 5682 5675 5670
5640 5656 5672 5668 5673 5670 5677 5682 5689 5698 5704 5714 5724 5727 5729 5738 5744 5746 5750 5751 5754 5753 5754 5752 5753 5751 5747 5747 5742 5737 5733 5724 5718 5709 5704 5706 5701 5688 5682 5678 5664 5649 5647 5643